Location: �chenoz-la-M�line
(47.6009°N, 6.1354°E)
Time: 03:28:18
(UTC+00:00)

Cosmos 1464 Rocket - Pass Details

Date: 27 January 2021
Orbit: 953 x 1000 km, 82.9° (Epoch: 27 February)

Event Time Altitude Azimuth Distance (km) Brightness Sun altitude
Exits shadow 04:13:46 52° 179° (S) 1,180 4.3 -29.3°
Maximum altitude 04:15:25 85° 96° (E) 968 3.9 -29.0°
Drops below altitude 10° 04:21:37 10° 10° (N) 2,712 6.4 -28.0°
Sets 04:24:09 0° 10° (N) 3,669 7.2 -27.6°
